Weather History for MDPP - February, 2013

Change the Weather History Date:

Friday, February 22, 2013

  Actual Average Record
Temperature  
Mean Temperature 76 °F -  
Max Temperature 86 °F 81 °F 86 °F (2003)
Min Temperature 67 °F 68 °F 64 °F (2005)
Cooling Degree Days 12    
Growing Degree Days 26 (Base 50)    
Moisture  
Dew Point 73 °F    
Average Humidity 78    
Maximum Humidity 94    
Minimum Humidity 64    
Precipitation  
Precipitation 0.00 in - - ()
Sea Level Pressure  
Sea Level Pressure 30.02 in    
Wind  
Wind Speed 5 mph ()    
Max Wind Speed 17 mph    
Max Gust Speed -    
Visibility 6.8 miles    
Events      
Averages and records for this station are not official NWS values.
T = Trace of Precipitation, MM = Missing Value Source: Averaged Metar Reports

Daily Weather History Graph

Daily Weather History Graph

Search for Another Location

Airport or City:

Trip Planner

Search our weather history database for the weather conditions in past years. The results will help you decide how hot, cold, wet, or windy it might be!

Date:

Astronomy

Feb. 22, 2013 Rise Set
Actual Time 7:06 AM AST 6:44 PM AST
Civil Twilight 6:44 AM AST 7:07 PM AST
Nautical Twilight 6:18 AM AST 7:32 PM AST
Astronomical Twilight 5:53 AM AST 7:58 PM AST
Moon 4:07 PM AST (2/22) 4:33 AM AST (2/22)
Length of Visible Light 12h 22m
Length of Day
11h 38m
Waxing Gibbous, 90% of the Moon is Illuminated
Feb 22
Waxing Gibbous
Feb 25
Full
Mar 4
Last Quarter
Mar 11
New
Mar 19
First Quarter

Hourly Weather History & Observations

Time (AST) Temp. Heat Index Dew Point Humidity Pressure Visibility Wind Dir Wind Speed Gust Speed Precip Events Conditions
2:00 AM 73.4 °F - 69.8 °F 88% 30.01 in 6.2 mi Calm Calm - N/A   Partly Cloudy
5:00 AM 69.8 °F - 68.0 °F 94% 29.98 in 6.2 mi Calm Calm - N/A   Partly Cloudy
8:00 AM 70 °F - 69 °F 94% 30.04 in 10 mi Calm Calm - -   Scattered Clouds
8:00 AM 69.8 °F - 68.0 °F 94% 30.04 in - Calm Calm - N/A   Partly Cloudy
9:00 AM 77.0 °F - 73.4 °F 89% 30.04 in 6.2 mi Calm Calm - N/A   Partly Cloudy
10:00 AM 82.4 °F 88.2 °F 73.4 °F 74% 30.06 in 6.2 mi ESE 9.2 mph - N/A   Partly Cloudy
11:00 AM 84.2 °F 92.3 °F 75.2 °F 74% 30.06 in 6.2 mi SSE 6.9 mph - N/A   Scattered Clouds
12:00 PM 86.0 °F 95.1 °F 75.2 °F 70% 30.06 in 6.2 mi ESE 8.1 mph - N/A   Scattered Clouds
1:00 PM 86.0 °F 96.9 °F 77.0 °F 74% 30.06 in 6.2 mi East 15.0 mph - N/A   Mostly Cloudy
2:00 PM 86 °F - 77 °F 67% 30.03 in 10 mi East 15.7 mph - -   Scattered Clouds
2:00 PM 86.0 °F 96.9 °F 77.0 °F 74% 30.01 in 6.2 mi East 5.8 mph - N/A   Partly Cloudy
3:00 PM 86.0 °F 95.1 °F 75.2 °F 70% 30.01 in 6.2 mi East 12.7 mph - N/A   Partly Cloudy
4:00 PM 86.0 °F 95.1 °F 75.2 °F 70% 29.98 in 6.2 mi East 16.1 mph - N/A   Partly Cloudy
5:00 PM 84 °F - 74 °F 64% 29.99 in 10 mi East 11.2 mph - -   Scattered Clouds
5:00 PM 84.2 °F 90.9 °F 73.4 °F 70% 29.98 in 6.2 mi East 11.5 mph - N/A   Partly Cloudy
6:00 PM 82.4 °F 88.2 °F 73.4 °F 74% 29.98 in 6.2 mi East 13.8 mph - N/A   Partly Cloudy
7:00 PM 77.0 °F - 71.6 °F 83% 30.01 in 6.2 mi ESE 17.3 mph - N/A   Partly Cloudy
8:00 PM 75.2 °F - 68.0 °F 78% 30.01 in 6.2 mi ESE 5.8 mph - N/A   Partly Cloudy
11:00 PM 73.4 °F - 68.0 °F 83% 30.06 in 6.2 mi East 5.8 mph - N/A   Partly Cloudy